Other Surface Observations
Issued by NWS Tucson, AZ

Home | Current Version | Previous Version | Text Only | Print | Product List | Glossary On
Versions: 1 2 3 4 5 6 7 8 9 10 11 12 13 14 15 16 17 18 19 20 21 22 23 24 25 26 27 28 29 30 31 32 33 34 35 36 37 38 39 40 41 42 43 44 45 46 47 48 49 50
000
SXUS55 KTWC 230016
OSOTWC

WEATHER ROUNDUP FOR SOUTHEAST ARIZONA
NATIONAL WEATHER SERVICE TUCSON AZ
515 PM MST FRI AUG 22 2014

AZZ504>506-514-230115-
LOCATION       SKY/WX    TMP DP  RH WIND       PRES   REMARKS
TUCSON         MOSUNNY   89  57  33 S7        29.98F
DAVIS-MONTHAN  MOSUNNY   88  58  35 W9        29.96S
CHILDRENS PARK N/A       89  54  31 W4                PIMA CO DEQ
ALVERNON/22ND  N/A      N/A N/A N/A N/A               PIMA CO DEQ
CHERRY/GLENN   N/A      N/A N/A N/A N/A               PIMA CO DEQ
TANGERINE      N/A       91 N/A N/A NW4               PIMA CO DEQ
CONTL RANCH    N/A       93  54  27 W9                PIMA CO DEQ
GRANT/1ST      N/A       90  54  30 NW5               PIMA CO DEQ
CRAYCROFT/22ND N/A      N/A N/A N/A N/A               PIMA CO DEQ
GOLFLINKS/KOLB N/A      N/A N/A N/A N/A               PIMA CO DEQ
AJO/12TH       N/A       90  55  31 SW7               PIMA CO DEQ
SAGUARO EAST   N/A      N/A N/A N/A N/A               PIMA CO DEQ
FAIRGROUNDS    N/A       84 N/A N/A S5                PIMA CO DEQ
SAGUARO        N/A       89  53  29 W7G17             *SABINO CYN
SAN CARLOS     N/A       90  56  32 W10G22            *SAN CARLOS
GREEN VALLEY   N/A       88  57  35 W9                PIMA CO DEQ
HORSE CAMP CYN N/A       82  52  36 SW14G22           *ARAVAIPA CYN
RINCON MTNS    N/A       60  50  70 SW4G13            *NR MANNING CAMP
$$

AZZ509>511-230115-
LOCATION       SKY/WX    TMP DP  RH WIND       PRES   REMARKS
SAFFORD        PTSUNNY   84  56  38 S10       29.97R
STRAY HORSE    N/A       66  40  38 W13G21            *
TRAIL CABIN    N/A       75  47  37 NW9G17            *N OF GRANVILLE
BLACK HILLS    N/A       87  52  30 W10G19            *N OF FT THOMAS
DRY LAKE       N/A       69  48  48 W4G13             *NATANES MTNS
NOON CREEK     N/A       79  54  42 NE6G12            *PINALENO MTNS
COLUMBINE      N/A       57  50  78 SW4G12            *PINALENO MTNS
GUTHRIE        N/A       74  49  41 W9G33             *SW OF GUTHRIE
$$

AZZ502-503-513-230115-
LOCATION       SKY/WX    TMP DP  RH WIND       PRES   REMARKS
NOGALES        MOSUNNY   82  60  47 SW10      30.07S
SELLS          N/A       91  59  34 SW11G17           *
SASABE         N/A       84  59  43 SW12G20           *ALTAR VLY
HOPKINS        N/A       65  60  85 W7G12             *SANTA RITA MTNS
CARR CYN       N/A       67  61  82 CALM              *W OF HEREFORD
$$

AZZ507-508-512-230115-
LOCATION       SKY/WX    TMP DP  RH WIND       PRES   REMARKS
SIERRA VISTA   PTSUNNY   72  66  83 S10       30.13S
DOUGLAS        CLOUDY    71  63  75 W6        30.10S
EMPIRE MTNS    N/A       78  59  53 SW7G12            *LAS CIENEGAS NCA
MULESHOE RANCH N/A       82  51  34 SW8G24            *PRESERVE
HEADQUARTERS   N/A       72  56  58 SW6G13            *CHIRICAHUA MTNS
$$

.............................NOTES.............................
THIS IS AN AUTOMATED COLLECTIVE WITH MINIMAL QUALITY CONTROL.
PIMA CO DEQ SITES HAVE NONSTANDARD WIND SENSOR HEIGHTS.
PIMA CO DEQ SITES DO NOT REPORT WIND GUSTS.
* INDICATES WIND SENSORS LOCATED AT 20 FEET INSTEAD OF 33 FEET.
..............................KEY..............................
SKY/WX - SKY CONDITION/WEATHER
TMP    - TEMPERATURE IN FAHRENHEIT
DP     - DEWPOINT IN FAHRENHEIT
RH     - RELATIVE HUMIDITY IN PERCENT
WIND   - DIRECTION AND SPEED IN MILES PER HOUR (MPH)
VRB    - VARIABLE WIND DIRECTION
PRES   - MEAN SEA LEVEL PRESSURE IN INCHES OF MERCURY
         F - FALLING PRESSURE   R - RISING PRESSURE
         S - STEADY PRESSURE
VSB    - VISIBILITY IN MILES
HX     - HEAT INDEX IN FAHRENHEIT
WCI    - WIND CHILL INDEX IN FAHRENHEIT
N/A    - NOT AVAILABLE
AFB    - AIR FORCE BASE
         DAVIS-MONTHAN IS DAVIS-MONTHAN AIR FORCE BASE
CYN    - CANYON
MTNS   - MOUNTAINS
NCA    - NATIONAL CONSERVATION AREA
NR     - NEAR
VLY    - VALLEY
CONTL  - CONTINENTAL
PIMA CO DEQ - PIMA COUNTY DEPT OF ENVIRONMENTAL QUALITY



USA.gov is the U.S. government's official web portal to all federal, state and local government web resources and services.